Location: Vale
(35.4830°N, 81.3830°W)
Time: 03:32:04
(UTC-05:00)

Amateur Radio Satellites - All Passes

Search period start: 29 November 2014 03:02
Search period end: 30 November 2014 03:02
Location: Vale, 35.4830°N, 81.3830°W

Satellite Date Start Highest point End Downlink Frequencies (MHz)
Time Altitude Azimuth
HORYU 2 29 Nov 03:08:55 03:12:58 32° 98° (E) 03:17:01 437.375
AO-7 29 Nov 03:17:43 03:23:16 19° 93° (E) 03:28:46 29.400- 29.500
Oscar 19 29 Nov 03:24:33 03:27:31 16° 296° (WNW) 03:30:30 437.125/150
MOZHAYETS 4 29 Nov 03:26:26 03:28:16 12° 65° (ENE) 03:30:07
KKS-1 29 Nov 03:35:07 03:36:48 12° 268° (W) 03:38:29 437.445
Gurwin Techsat 1B 29 Nov 03:35:30 03:40:41 55° 287° (WNW) 03:45:50 435.225
SO-50 29 Nov 03:55:39 03:59:32 28° 308° (NW) 04:03:31 436.795
AIST 2 29 Nov 04:00:53 04:02:55 13° 47° (NE) 04:04:56 435.215
SRMSAT 29 Nov 04:08:34 04:10:22 11° 194° (SSW) 04:12:10 437.500
PCSat 29 Nov 04:23:06 04:28:26 56° 61° (ENE) 04:33:44 145.827
ITAMSAT 1 29 Nov 04:26:41 04:27:52 11° 299° (WNW) 04:29:03 435.822/435.867
YUBILEINY 29 Nov 04:27:13 04:33:15 20° 292° (WNW) 04:39:20 435.215
BEESAT 3 29 Nov 04:29:43 04:33:50 52° 58° (ENE) 04:37:52 437.485
HORYU 2 29 Nov 04:46:07 04:49:24 20° 292° (WNW) 04:52:41 437.375
BEESAT 2 29 Nov 04:47:56 04:52:09 77° 60° (ENE) 04:56:18 435.950
O/OREOS (USA 219) 29 Nov 04:55:37 04:59:43 36° 104° (ESE) 05:03:49 437.305
PRISM 29 Nov 04:59:54 05:03:09 22° 69° (ENE) 05:06:26 437.425
MOZHAYETS 4 29 Nov 05:00:26 05:04:57 58° 260° (W) 05:09:31
AO-7 29 Nov 05:08:20 05:16:42 78° 289° (WNW) 05:25:03 29.400- 29.500
ISS 29 Nov 05:08:43 05:11:55 46° 39° (NE) 05:15:06 145.825
CUBESAT XI-V 29 Nov 05:16:56 05:19:15 14° 65° (ENE) 05:21:33 437.345
JAS-2 29 Nov 05:26:11 05:32:53 60° 100° (E) 05:38:44 435.910
STRAND 1 29 Nov 05:29:58 05:33:42 21° 66° (ENE) 05:37:26 437.568
AIST 1 29 Nov 05:35:14 05:36:16 11° 71° (ENE) 05:37:18
AIST 2 29 Nov 05:37:43 05:41:58 63° 244° (WSW) 05:46:08 435.215
Cubesat XI-IV 29 Nov 05:50:12 05:54:19 23° 95° (E) 05:58:24 437.490
PCSat 29 Nov 06:08:00 06:11:19 17° 256° (WSW) 06:14:37 145.827
BEESAT 3 29 Nov 06:10:11 06:11:32 11° 253° (WSW) 06:12:52 437.485
GONETS M04 29 Nov 06:27:07 06:30:58 14° 77° (ENE) 06:34:48
CUTE-I 29 Nov 06:29:45 06:34:58 55° 101° (E) 06:40:08 437.470
PRISM 29 Nov 06:35:02 06:38:33 26° 263° (W) 06:42:06 437.425
O/OREOS (USA 219) 29 Nov 06:36:06 06:39:13 18° 300° (WNW) 06:42:19 437.305
ISS 29 Nov 06:46:32 06:48:14 14° 233° (SW) 06:49:56 145.825
CUBESAT XI-V 29 Nov 06:51:33 06:56:10 55° 260° (W) 07:00:49 437.345
AO-7 29 Nov 07:03:43 07:08:09 16° 308° (NW) 07:12:34 29.400- 29.500
STRAND 1 29 Nov 07:07:43 07:12:33 42° 261° (W) 07:17:25 437.568
AIST 1 29 Nov 07:10:01 07:14:16 52° 267° (W) 07:18:26
JAS-2 29 Nov 07:12:28 07:17:11 20° 299° (WNW) 07:21:33 435.910
Cubesat XI-IV 29 Nov 07:29:35 07:34:29 38° 290° (WNW) 07:39:20 437.490
HO-68 29 Nov 07:43:55 07:44:22 10° 89° (E) 07:44:49 435.675
CUTE-I 29 Nov 08:11:16 08:14:32 17° 296° (WNW) 08:17:47 437.470
GONETS M04 29 Nov 08:17:31 08:26:20 85° 95° (E) 08:35:13
SEEDS 29 Nov 08:24:12 08:26:12 13° 92° (E) 08:28:11 437.485
AAUSAT CUBESAT 2 29 Nov 08:34:00 08:35:43 12° 92° (E) 08:37:26 437.432
BRITE-PL 29 Nov 08:36:48 08:39:59 21° 96° (E) 08:43:13 437.365/2234.400
COMPASS 1 29 Nov 08:50:23 08:53:45 23° 95° (E) 08:57:07 437.405
CANX-2 29 Nov 08:55:35 08:59:40 40° 99° (E) 09:03:43 2200.000
DX 1 29 Nov 09:14:57 09:17:34 16° 94° (E) 09:20:10 434.975-435.025
UWE-3 29 Nov 09:21:24 09:22:02 10° 92° (E) 09:22:41 435.000/436.395/437.385
HO-68 29 Nov 09:25:48 09:33:00 78° 105° (ESE) 09:40:08 435.675
CUBEBUG 2 29 Nov 09:26:59 09:29:31 15° 94° (E) 09:32:05 437.445
GOMX 1 29 Nov 09:27:17 09:31:26 60° 101° (E) 09:35:47 467.674
CUTE 1.7 + AOD 2 29 Nov 09:29:34 09:33:53 84° 283° (WNW) 09:38:11 437.475
POPSAT HIP 1 29 Nov 09:36:28 09:39:04 16° 68° (ENE) 09:41:40 437.405
ZACube-1 29 Nov 09:46:11 09:49:11 18° 95° (E) 09:52:12 437.345
TIGRISAT 29 Nov 09:49:59 09:53:47 33° 72° (ENE) 09:57:36 435.000
DELFI C3 29 Nov 09:54:17 09:58:17 46° 99° (E) 10:02:15 145.870
SEEDS 29 Nov 09:58:09 10:02:12 43° 286° (WNW) 10:06:16 437.485
VELOX 1 29 Nov 10:00:42 10:03:21 16° 94° (E) 10:06:00 145.980
50 SAT 29 Nov 10:03:00 10:04:43 12° 93° (E) 10:06:27 437.505
UNISAT 6 29 Nov 10:05:20 10:09:28 52° 74° (ENE) 10:13:37 437.425
DOVE 4 29 Nov 10:06:23 10:10:35 63° 284° (WNW) 10:14:57 437.250
AAUSAT CUBESAT 2 29 Nov 10:07:32 10:11:36 45° 286° (WNW) 10:15:39 437.432
UKube-1 29 Nov 10:10:19 10:14:39 71° 102° (ESE) 10:18:57 .
POLYITAN 1 29 Nov 10:10:43 10:14:42 40° 73° (ENE) 10:18:40 437.675
QB50P2 29 Nov 10:11:13 10:15:12 41° 73° (ENE) 10:19:12 145.880/145.840
DUCHIFAT 1 29 Nov 10:14:44 10:18:46 44° 74° (ENE) 10:22:49 145.980
BRITE-PL 29 Nov 10:15:02 10:18:28 25° 289° (WNW) 10:21:59 437.365/2234.400
CINEMA 3 29 Nov 10:15:17 10:19:35 85° 284° (WNW) 10:24:03 145.822/145.860
GONETS M04 29 Nov 10:18:43 10:24:12 18° 294° (WNW) 10:29:44
Oscar 11 29 Nov 10:18:51 10:23:12 74° 284° (WNW) 10:27:32 145.826/435.025
FUNcube-1 29 Nov 10:19:15 10:23:22 44° 99° (E) 10:27:33 145.935
COMPASS 1 29 Nov 10:25:55 10:29:24 25° 289° (WNW) 10:32:53 437.405
AISAT 29 Nov 10:28:07 10:32:08 33° 98° (E) 10:36:07 437.250
CUBEBUG 1 29 Nov 10:29:56 10:30:54 11° 92° (E) 10:31:52 437.445
CANX-2 29 Nov 10:32:47 10:35:14 15° 293° (WNW) 10:37:41 2200.000
ANTELSAT 29 Nov 10:34:27 10:38:41 68° 259° (WSW) 10:42:56 437.575/2403.000
NANOSAT C BR1 29 Nov 10:34:33 10:38:48 80° 76° (ENE) 10:43:03 145.865
BUGSAT 1 29 Nov 10:36:16 10:40:29 68° 76° (ENE) 10:44:41 437.445
HUMSAT D 29 Nov 10:37:06 10:41:06 42° 99° (E) 10:45:08 437.325/437.525
QB50P1 29 Nov 10:45:00 10:49:15 76° 258° (WSW) 10:53:30 145.935-145.965
DX 1 29 Nov 10:49:55 10:53:55 37° 288° (WNW) 10:57:54 434.975-435.025
SO-50 29 Nov 10:50:08 10:52:56 15° 46° (NE) 10:55:45 436.795
UWE-3 29 Nov 10:54:38 10:58:50 56° 285° (WNW) 11:03:09 435.000/436.395/437.385
CUBEBUG 2 29 Nov 11:02:19 11:06:19 39° 287° (WNW) 11:10:25 437.445
POPSAT HIP 1 29 Nov 11:10:43 11:14:39 36° 262° (W) 11:18:36 437.405
HO-68 29 Nov 11:15:18 11:19:51 18° 301° (WNW) 11:24:24 435.675
ZACube-1 29 Nov 11:21:46 11:25:35 32° 288° (WNW) 11:29:27 437.345
TIGRISAT 29 Nov 11:27:53 11:30:37 17° 266° (W) 11:33:21 435.000
DELFI C3 29 Nov 11:31:25 11:33:09 12° 294° (WNW) 11:34:52 145.870
VELOX 1 29 Nov 11:35:58 11:40:04 39° 288° (WNW) 11:44:09 145.980
50 SAT 29 Nov 11:36:20 11:40:11 41° 286° (WNW) 11:44:03 437.505
SPROUT 29 Nov 11:37:43 11:39:59 14° 93° (E) 11:42:16 437.525
UNISAT 6 29 Nov 11:45:47 11:46:33 10° 268° (W) 11:47:20 437.425
ESTCUBE 1 29 Nov 11:47:34 11:52:06 81° 284° (WNW) 11:56:36 437.505/2401.250
POLYITAN 1 29 Nov 11:48:36 11:50:48 14° 267° (W) 11:52:59 437.675
QB50P2 29 Nov 11:49:08 11:51:17 14° 267° (W) 11:53:26 145.880/145.840
DUCHIFAT 1 29 Nov 11:52:59 11:54:50 13° 267° (W) 11:56:41 145.980
FUNcube-1 29 Nov 11:57:10 11:59:21 14° 293° (WNW) 12:01:32 145.935
CUBEBUG 1 29 Nov 12:03:20 12:07:34 54° 286° (WNW) 12:11:46 437.445
AISAT 29 Nov 12:05:26 12:08:30 19° 292° (WNW) 12:11:34 437.250
DANDE 29 Nov 12:12:18 12:13:53 14° 94° (E) 12:15:24 436.750
HUMSAT D 29 Nov 12:14:23 12:16:33 14° 293° (WNW) 12:18:43 437.325/437.525
VERMONT LUNAR 29 Nov 12:19:51 12:23:06 33° 149° (SSE) 12:26:23 437.305
PHONESAT 2.4 29 Nov 12:24:28 12:27:33 25° 146° (SE) 12:30:39 2401.200-2431.200
SO-50 29 Nov 12:29:06 12:33:58 71° 243° (WSW) 12:38:50 436.795
M-CUBED/EXP-1 PRIME 29 Nov 12:38:49 12:40:44 12° 95° (E) 12:42:37 437.505
YUBILEINY 29 Nov 12:41:33 12:49:06 32° 73° (ENE) 12:56:35 435.215
BEESAT 29 Nov 12:49:05 12:51:46 15° 93° (E) 12:54:25 436.000
TISAT 1 29 Nov 12:50:20 12:54:30 64° 285° (WNW) 12:58:39 437.305
Oscar 19 29 Nov 12:57:29 13:02:30 60° 74° (ENE) 13:07:32 437.125/150
CUSAT 1 29 Nov 13:11:50 13:14:11 27° 282° (WNW) 13:16:29 437.405
SPROUT 29 Nov 13:12:14 13:16:14 40° 287° (WNW) 13:20:13 437.525
Gurwin Techsat 1B 29 Nov 13:15:32 13:19:13 19° 66° (ENE) 13:22:53 435.225
ITUPSAT 1 29 Nov 13:45:27 13:50:13 61° 101° (E) 13:54:55 437.325
KKS-1 29 Nov 13:51:55 13:53:52 13° 93° (E) 13:55:49 437.445
SWISSCUBE 29 Nov 13:54:50 13:59:39 87° 103° (ESE) 14:04:25 437.505
VERMONT LUNAR 29 Nov 13:57:55 14:01:28 57° 344° (NNW) 14:05:03 437.305
ITAMSAT 1 29 Nov 13:58:49 14:04:03 89° 258° (WSW) 14:09:17 435.822/435.867
PHONESAT 2.4 29 Nov 14:02:26 14:06:08 71° 341° (NNW) 14:09:50 2401.200-2431.200
AUBIESAT-1 29 Nov 14:03:15 14:08:10 85° 288° (WNW) 14:12:50 437.475
HORYU 2 29 Nov 14:05:21 14:08:42 22° 68° (ENE) 14:12:03 437.375
M-CUBED/EXP-1 PRIME 29 Nov 14:11:16 14:16:09 64° 290° (WNW) 14:20:48 437.505
AO-7 29 Nov 14:14:03 14:19:58 22° 57° (ENE) 14:25:54 29.400- 29.500
BEESAT 29 Nov 14:25:14 14:29:50 48° 287° (WNW) 14:34:24 436.000
RS-15 29 Nov 14:26:30 14:35:53 34° 106° (ESE) 14:45:09 29.354- 29.394
YUBILEINY 29 Nov 14:37:51 14:46:04 49° 271° (W) 14:54:15 435.215
STARS 29 Nov 14:37:57 14:41:47 29° 97° (E) 14:45:36 437.465
Oscar 19 29 Nov 14:39:52 14:42:11 13° 268° (W) 14:44:31 437.125/150
MaSat-1 29 Nov 14:53:01 14:55:27 23° 296° (WNW) 14:57:43 437.345
Gurwin Techsat 1B 29 Nov 14:53:41 14:58:46 47° 261° (W) 15:03:54 435.225
O/OREOS (USA 219) 29 Nov 15:08:16 15:12:32 42° 66° (ENE) 15:16:47 437.305
ITUPSAT 1 29 Nov 15:25:29 15:27:32 13° 296° (WNW) 15:29:35 437.325
KKS-1 29 Nov 15:26:28 15:30:44 48° 287° (WNW) 15:35:00 437.445
JAS-2 29 Nov 15:34:13 15:40:04 24° 62° (ENE) 15:45:58 435.910
VERMONT LUNAR 29 Nov 15:36:56 15:40:18 35° 1° (N) 15:43:40 437.305
HORYU 2 29 Nov 15:41:20 15:45:11 29° 263° (W) 15:49:03 437.375
PHONESAT 2.4 29 Nov 15:41:46 15:45:14 36° 358° (N) 15:48:42 2401.200-2431.200
AO-7 29 Nov 16:03:35 16:11:52 77° 254° (WSW) 16:20:13 29.400- 29.500
STARS 29 Nov 16:14:45 16:18:04 21° 291° (WNW) 16:21:23 437.465
RS-15 29 Nov 16:36:45 16:47:32 60° 305° (NW) 16:58:20 29.354- 29.394
O/OREOS (USA 219) 29 Nov 16:49:05 16:51:31 15° 261° (W) 16:53:57 437.305
MOZHAYETS 4 29 Nov 16:58:53 17:03:18 41° 98° (E) 17:07:40
Cubesat XI-IV 29 Nov 17:09:16 17:13:49 29° 68° (ENE) 17:18:21 437.490
VERMONT LUNAR 29 Nov 17:15:31 17:19:07 61° 17° (NNE) 17:22:42 437.305
JAS-2 29 Nov 17:16:43 17:24:19 69° 259° (WSW) 17:32:11 435.910
PHONESAT 2.4 29 Nov 17:20:46 17:24:25 52° 15° (NNE) 17:28:03 2401.200-2431.200
CUTE-I 29 Nov 17:48:35 17:53:53 68° 74° (ENE) 17:59:13 437.470
AO-7 29 Nov 18:03:24 18:05:45 11° 270° (W) 18:08:06 29.400- 29.500
PRISM 29 Nov 18:20:37 18:24:47 55° 101° (E) 18:28:53 437.425
BEESAT 3 29 Nov 18:22:47 18:25:52 21° 110° (ESE) 18:29:00 437.485
GONETS M04 29 Nov 18:32:12 18:40:10 36° 74° (ENE) 18:48:02
MOZHAYETS 4 29 Nov 18:37:10 18:40:09 17° 293° (WNW) 18:43:09
BEESAT 2 29 Nov 18:41:01 18:44:38 31° 113° (ESE) 18:48:18 435.950
Cubesat XI-IV 29 Nov 18:49:03 18:53:46 31° 263° (W) 18:58:30 437.490
CUBESAT XI-V 29 Nov 18:51:38 18:56:07 46° 99° (E) 19:00:32 437.345
VERMONT LUNAR 29 Nov 18:54:14 18:57:27 30° 212° (SSW) 19:00:39 437.305
RS-15 29 Nov 18:55:57 19:02:52 18° 333° (NNW) 19:09:52 29.354- 29.394
PHONESAT 2.4 29 Nov 18:59:40 19:03:10 41° 210° (SSW) 19:06:40 2401.200-2431.200
PCSat 29 Nov 19:01:29 19:06:53 85° 296° (WNW) 19:12:20 145.827
STRAND 1 29 Nov 19:21:02 19:26:09 85° 103° (ESE) 19:31:14 437.568
CUTE-I 29 Nov 19:32:11 19:34:22 12° 268° (W) 19:36:33 437.470
AIST 2 29 Nov 19:33:10 19:37:17 58° 116° (ESE) 19:41:30 435.215
AIST 1 29 Nov 19:36:05 19:40:28 77° 277° (W) 19:44:54
COMPASS 1 29 Nov 19:41:34 19:42:52 11° 66° (ENE) 19:44:10 437.405
BRITE-PL 29 Nov 19:45:08 19:48:43 21° 70° (ENE) 19:52:08 437.365/2234.400
CANX-2 29 Nov 19:46:45 19:49:52 21° 69° (ENE) 19:53:01 2200.000
HO-68 29 Nov 19:51:00 19:57:40 43° 67° (ENE) 20:04:21 435.675
PRISM 29 Nov 19:58:38 19:59:48 11° 295° (WNW) 20:00:58 437.425
BEESAT 3 29 Nov 20:00:19 20:03:54 29° 306° (NW) 20:07:33 437.485
DX 1 29 Nov 20:10:22 20:10:53 10° 64° (ENE) 20:11:24 434.975-435.025
BEESAT 2 29 Nov 20:19:45 20:22:56 21° 309° (NW) 20:26:09 435.950
CUTE 1.7 + AOD 2 29 Nov 20:19:47 20:23:48 46° 74° (ENE) 20:27:52 437.475
GONETS M04 29 Nov 20:28:51 20:36:59 44° 272° (W) 20:45:03
CUBESAT XI-V 29 Nov 20:30:27 20:33:08 15° 294° (WNW) 20:35:47 437.345
GOMX 1 29 Nov 20:32:40 20:37:11 47° 75° (ENE) 20:41:26 467.674
DELFI C3 29 Nov 20:41:05 20:44:05 20° 69° (ENE) 20:47:07 145.870
ZACube-1 29 Nov 20:42:57 20:43:04 10° 65° (ENE) 20:43:11 437.345
SEEDS 29 Nov 20:47:17 20:51:28 87° 77° (ENE) 20:55:42 437.485
PCSat 29 Nov 20:49:00 20:51:06 12° 314° (NW) 20:53:12 145.827
AAUSAT CUBESAT 2 29 Nov 20:55:40 20:59:48 80° 77° (ENE) 21:04:00 437.432
VELOX 1 29 Nov 20:57:53 20:58:56 11° 64° (ENE) 21:00:00 145.980
UKube-1 29 Nov 21:02:39 21:06:44 41° 72° (ENE) 21:10:49 .
STRAND 1 29 Nov 21:04:13 21:04:34 10° 299° (WNW) 21:04:55 437.568
DOVE 4 29 Nov 21:09:14 21:13:49 89° 260° (W) 21:18:09 437.250
Oscar 11 29 Nov 21:10:38 21:14:50 57° 75° (ENE) 21:19:05 145.826/435.025
FUNcube-1 29 Nov 21:13:17 21:16:39 24° 71° (ENE) 21:20:00 145.935
COMPASS 1 29 Nov 21:14:03 21:18:06 51° 260° (W) 21:22:12 437.405
AIST 2 29 Nov 21:14:04 21:16:17 14° 313° (NW) 21:18:31 435.215
CINEMA 3 29 Nov 21:14:31 21:18:48 60° 75° (ENE) 21:22:58 145.822/145.860
RS-15 29 Nov 21:17:28 21:22:03 13° 12° (NNE) 21:26:41 29.354- 29.394
CANX-2 29 Nov 21:22:02 21:25:38 27° 264° (W) 21:29:15 2200.000
BRITE-PL 29 Nov 21:22:33 21:27:03 34° 262° (W) 21:31:15 437.365/2234.400
AISAT 29 Nov 21:24:06 21:27:34 22° 69° (ENE) 21:31:01 437.250
HUMSAT D 29 Nov 21:27:32 21:30:37 21° 70° (ENE) 21:33:41 437.325/437.525
HO-68 29 Nov 21:39:08 21:45:23 32° 263° (W) 21:51:42 435.675
DX 1 29 Nov 21:42:12 21:46:33 65° 258° (WSW) 21:50:54 434.975-435.025
ISS 29 Nov 21:47:55 21:51:11 84° 137° (SE) 21:54:29 145.825
UWE-3 29 Nov 21:49:07 21:53:20 81° 77° (ENE) 21:57:30 435.000/436.395/437.385
CUBEBUG 2 29 Nov 21:57:46 22:01:59 67° 259° (W) 22:06:09 437.445
CUTE 1.7 + AOD 2 29 Nov 21:58:22 21:59:58 12° 268° (W) 22:01:33 437.475
UNISAT 6 29 Nov 22:01:44 22:04:17 15° 93° (E) 22:06:51 437.425
CUSAT 1 29 Nov 22:10:28 22:12:10 11° 74° (ENE) 22:13:59 437.405
JUGNU 29 Nov 22:10:32 22:13:35 14° 171° (S) 22:16:38 437.505
GOMX 1 29 Nov 22:13:10 22:15:27 13° 266° (W) 22:17:40 467.674
ZACube-1 29 Nov 22:14:48 22:18:56 57° 260° (W) 22:23:02 437.345
DELFI C3 29 Nov 22:15:48 22:19:13 26° 264° (W) 22:22:39 145.870
50 SAT 29 Nov 22:21:57 22:25:58 81° 77° (ENE) 22:30:00 437.505
BUGSAT 1 29 Nov 22:24:18 22:25:49 12° 93° (E) 22:27:19 437.445
NANOSAT C BR1 29 Nov 22:24:23 22:27:02 16° 94° (E) 22:29:40 145.865
ANTELSAT 29 Nov 22:29:45 22:33:46 31° 97° (E) 22:37:51 437.575/2403.000
VELOX 1 29 Nov 22:30:31 22:34:57 64° 259° (WSW) 22:39:24 145.980
SRMSAT 29 Nov 22:31:22 22:32:17 10° 165° (SSE) 22:33:13 437.500
QB50P1 29 Nov 22:34:23 22:37:38 21° 96° (E) 22:40:53 145.935-145.965
UKube-1 29 Nov 22:40:37 22:43:02 15° 266° (W) 22:45:28 .
ESTCUBE 1 29 Nov 22:44:13 22:48:43 64° 75° (ENE) 22:53:14 437.505/2401.250
FUNcube-1 29 Nov 22:49:38 22:52:55 22° 264° (W) 22:56:12 145.935
DANDE 29 Nov 22:52:38 22:56:56 24° 78° (ENE) 23:02:14 436.750
CUBEBUG 1 29 Nov 22:56:20 23:00:47 85° 77° (ENE) 23:05:14 437.445
POPSAT HIP 1 29 Nov 22:59:10 23:03:11 42° 99° (E) 23:07:12 437.405
AISAT 29 Nov 23:00:09 23:04:01 28° 263° (W) 23:07:54 437.250
HUMSAT D 29 Nov 23:02:49 23:06:16 25° 264° (W) 23:09:43 437.325/437.525
TIGRISAT 29 Nov 23:20:41 23:25:09 69° 284° (WNW) 23:29:42 435.000
ISS 29 Nov 23:26:31 23:28:12 13° 334° (NNW) 23:29:54 145.825
RS-15 29 Nov 23:29:27 23:39:26 35° 45° (NE) 23:49:42 29.354- 29.394
POLYITAN 1 29 Nov 23:35:15 23:39:27 66° 284° (WNW) 23:43:39 437.675
QB50P2 29 Nov 23:35:32 23:39:44 65° 285° (WNW) 23:43:55 145.880/145.840
UNISAT 6 29 Nov 23:36:56 23:41:13 44° 287° (WNW) 23:45:35 437.425
DUCHIFAT 1 29 Nov 23:38:43 23:42:52 61° 285° (WNW) 23:47:01 145.980
TISAT 1 29 Nov 23:39:51 23:44:04 63° 75° (ENE) 23:48:17 437.305
CUSAT 1 29 Nov 23:49:54 23:55:19 88° 263° (W) 00:02:31 437.405
BEESAT 29 Nov 23:53:50 23:56:03 13° 64° (ENE) 23:58:15 436.000
BUGSAT 1 29 Nov 23:57:40 00:01:30 42° 287° (WNW) 00:05:18 437.445
JUGNU 29 Nov 23:58:11 00:01:51 17° 181° (S) 00:05:31 437.505
NANOSAT C BR1 29 Nov 23:59:10 00:02:59 34° 288° (WNW) 00:06:48 145.865
SPROUT 30 Nov 00:03:07 00:07:26 79° 258° (WSW) 00:11:46 437.525
ANTELSAT 30 Nov 00:06:57 00:10:22 22° 291° (WNW) 00:13:50 437.575/2403.000
QB50P1 30 Nov 00:09:58 00:13:28 26° 290° (WNW) 00:16:58 145.935-145.965
SRMSAT 30 Nov 00:17:04 00:20:41 17° 175° (S) 00:24:19 437.500
MaSat-1 30 Nov 00:32:49 00:34:56 29° 250° (WSW) 00:37:10 437.345
DANDE 30 Nov 00:35:19 00:40:18 41° 264° (W) 00:46:47 436.750
POPSAT HIP 1 30 Nov 00:36:34 00:38:42 14° 293° (WNW) 00:40:50 437.405
ITUPSAT 1 30 Nov 00:49:23 00:54:02 50° 73° (ENE) 00:58:42 437.325
AUBIESAT-1 30 Nov 00:49:43 00:53:49 79° 72° (ENE) 00:58:21 437.475
M-CUBED/EXP-1 PRIME 30 Nov 00:58:07 01:02:12 75° 254° (WSW) 01:06:42 437.505
SWISSCUBE 30 Nov 00:58:26 01:03:12 71° 75° (ENE) 01:08:00 437.505
Oscar 19 30 Nov 01:12:36 01:16:59 27° 96° (E) 01:21:20 437.125/150
BEESAT 30 Nov 01:28:37 01:33:20 59° 259° (W) 01:38:05 436.000
STARS 30 Nov 01:33:12 01:36:15 19° 68° (ENE) 01:39:18 437.465
CUSAT 1 30 Nov 01:37:27 01:38:15 10° 271° (W) 01:39:04 437.405
YUBILEINY 30 Nov 01:38:24 01:46:24 41° 87° (E) 01:54:22 435.215
RS-15 30 Nov 01:41:24 01:52:36 69° 246° (WSW) 02:04:18 29.354- 29.394
JUGNU 30 Nov 01:47:39 01:50:06 13° 192° (SSW) 01:52:34 437.505
SRMSAT 30 Nov 02:05:31 02:09:08 17° 185° (S) 02:12:45 437.500
ITAMSAT 1 30 Nov 02:15:04 02:19:57 41° 99° (E) 02:24:47 435.822/435.867
KKS-1 30 Nov 02:21:31 02:25:57 79° 258° (WSW) 02:30:25 437.445
ITUPSAT 1 30 Nov 02:29:36 02:32:10 14° 267° (W) 02:34:44 437.325
SO-50 30 Nov 02:40:53 02:45:21 79° 118° (ESE) 02:49:59 436.795
Oscar 19 30 Nov 02:51:45 02:56:14 31° 291° (WNW) 03:00:43 437.125/150
